SL-19 DEB, 23486

Orbit data source: Space-Track

SL-19 DEB, 23486 is space debris in LEO originally from a launch on Mon, 26 Dec 1994 UTC launched from the Tyuratam Missile And Space Complex (TTMTR). Debris objects in space refer to the collection of defunct objects orbiting the Earth. Examples of debris include non-operational satellites, rocket bodies, and fragments generated from explosions, collisions, or faulty payload assembly.

Loading next visibility...
Identifier
23486, 1994-085J
Orbit
LEO
Country
Flag of CISCIS
Related business
Manufacturer
Unknown
Mission
Spacecraft
Bus & Motor
Unknown
Mass
Unknown
Launch date (UTC)
1994-12-26 (31 years ago)
Launch vehicle
Unknown
Launch site
Tyuratam Missile And Space Complex (TTMTR)
Object type
Payload
Rocket body
Debris
Shape & HBR
Unknown shape, 0.1 m
Radar Cross Section
Medium (>0.1 m² and <1 m²)

Expand to show TLE details & history
Last TLE update: 3 days ago

TLE from 3 days ago
0 SL-19 DEB
1 23486U 94085J   26170.64007106 -.00000137  00000-0 -27320-2 0  9998
2 23486  64.9138 119.5785 0186755 241.2870 306.7522 11.25757208603415
Epoch: 2026-06-19T15:21Z
TLE epoch observation values (Epoch: 2026-06-19T15:21:42.139Z)
Latitude
-5.81736°
Longitude
164.00778°
Altitude
1,941.956 km
Speed
6.961 km/s
True Right ascension
20h 09m 11s
True Declination
-5° 47' 16"
Sunlit
Object was in full shadow at epoch
Visualization orbit readout
Latitude
Unknown
Longitude
Unknown
Altitude
Unknown
Speed
Unknown
Apparent Right ascension
Unknown
Apparent Declination
Unknown
Sunlit
N/A
Visualization observer readout
Local Sidereal Time
01:06:00
Azimuth
Unknown
Elevation
Unknown
Doppler factor
Unknown
Orbital elements
Apogee altitude
2,187.227 km
Perigee altitude
1,873.167 km
Semi-major axis
8,408.334 km
Eccentricity
0.01868
Inclination
64.9138°
RAAN
119.5785°
Arg. of periapsis
241.287°
True anomaly
305.01351°
Mean anomaly
306.7522°
Eccentric anomaly
305.88527°
Mean motion
2.815 °/min
Orbital period
127.89 mins
BSTAR
-0.002732
Loading maneuver chart data...
Computing Atmospheric mass density...
Loading historical data...
Loading historical data...
Loading historical data...
Loading historical data...
Loading historical data...
Loading historical data...
Loading historical data...

Documentation

Showing up to 5 results
|